Year,Month,Day,Hour,Minute,Value (Times are PST for temperature in C)
2017,08,02,00,00,20.50
2017,08,02,00,01,20.50
2017,08,02,00,02,20.50
2017,08,02,00,03,20.50
2017,08,02,00,04,20.40
2017,08,02,00,05,20.50
2017,08,02,00,06,20.50
2017,08,02,00,07,20.50
2017,08,02,00,08,20.50
2017,08,02,00,09,20.50
2017,08,02,00,10,20.40
2017,08,02,00,11,20.40
2017,08,02,00,12,20.40
2017,08,02,00,13,20.40
2017,08,02,00,14,20.40
2017,08,02,00,15,20.40
2017,08,02,00,16,20.40
2017,08,02,00,17,20.40
2017,08,02,00,18,20.30
2017,08,02,00,19,20.30
2017,08,02,00,20,20.30
2017,08,02,00,21,20.30
2017,08,02,00,22,20.30
2017,08,02,00,23,20.30
2017,08,02,00,24,20.30
2017,08,02,00,25,20.30
2017,08,02,00,26,20.30
2017,08,02,00,27,20.40
2017,08,02,00,28,20.40
2017,08,02,00,29,20.40
2017,08,02,00,30,20.40
2017,08,02,00,31,20.50
2017,08,02,00,32,20.50
2017,08,02,00,33,20.60
2017,08,02,00,34,20.60
2017,08,02,00,35,20.60
2017,08,02,00,36,20.60
2017,08,02,00,37,20.60
2017,08,02,00,38,20.70
2017,08,02,00,39,20.70
2017,08,02,00,40,20.70
2017,08,02,00,41,20.70
2017,08,02,00,42,20.70
2017,08,02,00,43,20.70
2017,08,02,00,44,20.80
2017,08,02,00,45,20.80
2017,08,02,00,46,20.80
2017,08,02,00,47,20.80
2017,08,02,00,48,20.80
2017,08,02,00,49,20.80
2017,08,02,00,50,20.80
2017,08,02,00,51,20.80
2017,08,02,00,52,20.80
2017,08,02,00,53,20.80
2017,08,02,00,54,20.80
2017,08,02,00,55,20.80
2017,08,02,00,56,20.90
2017,08,02,00,57,20.90
2017,08,02,00,58,20.90
2017,08,02,00,59,20.90
2017,08,02,01,00,20.90
2017,08,02,01,01,20.90
2017,08,02,01,02,21.00
2017,08,02,01,03,21.00
2017,08,02,01,04,21.00
2017,08,02,01,05,21.00
2017,08,02,01,06,21.00
2017,08,02,01,07,21.00
2017,08,02,01,08,21.00
2017,08,02,01,09,21.00
2017,08,02,01,10,21.00
2017,08,02,01,11,21.00
2017,08,02,01,12,21.00
2017,08,02,01,13,21.00
2017,08,02,01,14,21.00
2017,08,02,01,15,21.00
2017,08,02,01,16,21.00
2017,08,02,01,17,21.00
2017,08,02,01,18,20.90
2017,08,02,01,19,20.90
2017,08,02,01,20,20.90
2017,08,02,01,21,20.90
2017,08,02,01,22,20.90
2017,08,02,01,23,20.80
2017,08,02,01,24,20.80
2017,08,02,01,25,20.80
2017,08,02,01,26,20.80
2017,08,02,01,27,20.80
2017,08,02,01,28,20.80
2017,08,02,01,29,20.80
2017,08,02,01,30,20.80
2017,08,02,01,31,20.80
2017,08,02,01,32,20.80
2017,08,02,01,33,20.80
2017,08,02,01,34,20.80
2017,08,02,01,35,20.80
2017,08,02,01,36,20.80
2017,08,02,01,37,20.80
2017,08,02,01,38,20.80
2017,08,02,01,39,20.80
2017,08,02,01,40,20.80
2017,08,02,01,41,20.90
2017,08,02,01,42,20.90
2017,08,02,01,43,20.90
2017,08,02,01,44,21.00
2017,08,02,01,45,21.10
2017,08,02,01,46,21.10
2017,08,02,01,47,21.10
2017,08,02,01,48,21.10
2017,08,02,01,49,21.10
2017,08,02,01,50,21.10
2017,08,02,01,51,21.20
2017,08,02,01,52,21.20
2017,08,02,01,53,21.20
2017,08,02,01,54,21.20
2017,08,02,01,55,21.20
2017,08,02,01,56,21.20
2017,08,02,01,57,21.20
2017,08,02,01,58,21.20
2017,08,02,01,59,21.20
2017,08,02,02,00,21.20
2017,08,02,02,01,21.20
2017,08,02,02,02,21.20
2017,08,02,02,03,21.20
2017,08,02,02,04,21.20
2017,08,02,02,05,21.30
2017,08,02,02,06,21.30
2017,08,02,02,07,21.30
2017,08,02,02,08,21.30
2017,08,02,02,09,21.30
2017,08,02,02,10,21.30
2017,08,02,02,11,21.30
2017,08,02,02,12,21.30
2017,08,02,02,13,21.20
2017,08,02,02,14,21.20
2017,08,02,02,15,21.20
2017,08,02,02,16,21.20
2017,08,02,02,17,21.20
2017,08,02,02,18,21.20
2017,08,02,02,19,21.20
2017,08,02,02,20,21.20
2017,08,02,02,21,21.20
2017,08,02,02,22,21.20
2017,08,02,02,23,21.20
2017,08,02,02,24,21.20
2017,08,02,02,25,21.20
2017,08,02,02,26,21.20
2017,08,02,02,27,21.10
2017,08,02,02,28,21.10
2017,08,02,02,29,21.10
2017,08,02,02,30,21.00
2017,08,02,02,31,21.00
2017,08,02,02,32,21.00
2017,08,02,02,33,20.90
2017,08,02,02,34,20.90
2017,08,02,02,35,20.90
2017,08,02,02,36,20.90
2017,08,02,02,37,20.90
2017,08,02,02,38,20.90
2017,08,02,02,39,20.90
2017,08,02,02,40,20.90
2017,08,02,02,41,20.90
2017,08,02,02,42,20.90
2017,08,02,02,43,20.90
2017,08,02,02,44,20.90
2017,08,02,02,45,20.90
2017,08,02,02,46,20.90
2017,08,02,02,47,20.90
2017,08,02,02,48,20.90
2017,08,02,02,49,21.00
2017,08,02,02,50,21.00
2017,08,02,02,51,21.00
2017,08,02,02,52,21.00
2017,08,02,02,53,21.00
2017,08,02,02,54,20.90
2017,08,02,02,55,20.90
2017,08,02,02,56,20.90
2017,08,02,02,57,20.90
2017,08,02,02,58,21.00
2017,08,02,02,59,21.00
2017,08,02,03,00,21.10
2017,08,02,03,01,21.10
2017,08,02,03,02,21.10
2017,08,02,03,03,21.10
2017,08,02,03,04,21.20
2017,08,02,03,05,21.30
2017,08,02,03,06,21.30
2017,08,02,03,07,21.40
2017,08,02,03,08,21.50
2017,08,02,03,09,21.60
2017,08,02,03,10,21.70
2017,08,02,03,11,21.70
2017,08,02,03,12,21.70
2017,08,02,03,13,21.80
2017,08,02,03,14,21.80
2017,08,02,03,15,21.90
2017,08,02,03,16,22.00
2017,08,02,03,17,22.00
2017,08,02,03,18,22.10
2017,08,02,03,19,22.20
2017,08,02,03,20,22.20
2017,08,02,03,21,22.20
2017,08,02,03,22,22.20
2017,08,02,03,23,22.20
2017,08,02,03,24,22.30
2017,08,02,03,25,22.30
2017,08,02,03,26,22.30
2017,08,02,03,27,22.30
2017,08,02,03,28,22.30
2017,08,02,03,29,22.30
2017,08,02,03,30,22.30
2017,08,02,03,31,22.20
2017,08,02,03,32,22.20
2017,08,02,03,33,22.20
2017,08,02,03,34,22.20
2017,08,02,03,35,22.20
2017,08,02,03,36,22.20
2017,08,02,03,37,22.10
2017,08,02,03,38,22.10
2017,08,02,03,39,22.10
2017,08,02,03,40,22.10
2017,08,02,03,41,22.10
2017,08,02,03,42,22.10
2017,08,02,03,43,22.00
2017,08,02,03,44,22.00
2017,08,02,03,45,22.00
2017,08,02,03,46,21.90
2017,08,02,03,47,21.90
2017,08,02,03,48,21.90
2017,08,02,03,49,21.80
2017,08,02,03,50,21.90
2017,08,02,03,51,21.90
2017,08,02,03,52,22.00
2017,08,02,03,53,22.00
2017,08,02,03,54,22.00
2017,08,02,03,55,22.10
2017,08,02,03,56,22.00
2017,08,02,03,57,22.00
2017,08,02,03,58,22.00
2017,08,02,03,59,22.00
2017,08,02,04,00,22.00
2017,08,02,04,01,22.00
2017,08,02,04,02,22.00
2017,08,02,04,03,22.00
2017,08,02,04,04,22.00
2017,08,02,04,05,22.00
2017,08,02,04,06,22.00
2017,08,02,04,07,21.90
2017,08,02,04,08,21.90
2017,08,02,04,09,21.90
2017,08,02,04,10,21.80
2017,08,02,04,11,21.80
2017,08,02,04,12,21.80
2017,08,02,04,13,21.80
2017,08,02,04,14,21.80
2017,08,02,04,15,21.70
2017,08,02,04,16,21.70
2017,08,02,04,17,21.70
2017,08,02,04,18,21.60
2017,08,02,04,19,21.60
2017,08,02,04,20,21.60
2017,08,02,04,21,21.70
2017,08,02,04,22,21.70
2017,08,02,04,23,21.60
2017,08,02,04,24,21.60
2017,08,02,04,25,21.60
2017,08,02,04,26,21.60
2017,08,02,04,27,21.60
2017,08,02,04,28,21.60
2017,08,02,04,29,21.60
2017,08,02,04,30,21.60
2017,08,02,04,31,21.60
2017,08,02,04,32,21.50
2017,08,02,04,33,21.50
2017,08,02,04,34,21.50
2017,08,02,04,35,21.50
2017,08,02,04,36,21.50
2017,08,02,04,37,21.50
2017,08,02,04,38,21.50
2017,08,02,04,39,21.50
2017,08,02,04,40,21.40
2017,08,02,04,41,21.40
2017,08,02,04,42,21.40
2017,08,02,04,43,21.40
2017,08,02,04,44,21.40
2017,08,02,04,45,21.40
2017,08,02,04,46,21.40
2017,08,02,04,47,21.40
2017,08,02,04,48,21.40
2017,08,02,04,49,21.40
2017,08,02,04,50,21.40
2017,08,02,04,51,21.40
2017,08,02,04,52,21.40
2017,08,02,04,53,21.40
2017,08,02,04,54,21.50
2017,08,02,04,55,21.50
2017,08,02,04,56,21.50
2017,08,02,04,57,21.40
2017,08,02,04,58,21.40
2017,08,02,04,59,21.40
2017,08,02,05,00,21.40
2017,08,02,05,01,21.40
2017,08,02,05,02,21.40
2017,08,02,05,03,21.40
2017,08,02,05,04,21.40
2017,08,02,05,05,21.40
2017,08,02,05,06,21.40
2017,08,02,05,07,21.40
2017,08,02,05,08,21.40
2017,08,02,05,09,21.40
2017,08,02,05,10,21.40
2017,08,02,05,11,21.30
2017,08,02,05,12,21.30
2017,08,02,05,13,21.30
2017,08,02,05,14,21.30
2017,08,02,05,15,21.30
2017,08,02,05,16,21.20
2017,08,02,05,17,21.20
2017,08,02,05,18,21.20
2017,08,02,05,19,21.20
2017,08,02,05,20,21.20
2017,08,02,05,21,21.20
2017,08,02,05,22,21.20
2017,08,02,05,23,21.20
2017,08,02,05,24,21.30
2017,08,02,05,25,21.30
2017,08,02,05,26,21.30
2017,08,02,05,27,21.30
2017,08,02,05,28,21.30
2017,08,02,05,29,21.30
2017,08,02,05,30,21.30
2017,08,02,05,31,21.20
2017,08,02,05,32,21.20
2017,08,02,05,33,21.20
2017,08,02,05,34,21.20
2017,08,02,05,35,21.10
2017,08,02,05,36,21.10
2017,08,02,05,37,21.10
2017,08,02,05,38,21.00
2017,08,02,05,39,21.00
2017,08,02,05,40,21.00
2017,08,02,05,41,20.90
2017,08,02,05,42,20.90
2017,08,02,05,43,20.90
2017,08,02,05,44,20.90
2017,08,02,05,45,20.90
2017,08,02,05,46,20.90
2017,08,02,05,47,20.90
2017,08,02,05,48,20.90
2017,08,02,05,49,20.80
2017,08,02,05,50,20.80
2017,08,02,05,51,20.80
2017,08,02,05,52,20.80
2017,08,02,05,53,20.80
2017,08,02,05,54,20.80
2017,08,02,05,55,20.70
2017,08,02,05,56,20.70
2017,08,02,05,57,20.70
2017,08,02,05,58,20.70
2017,08,02,05,59,20.60
2017,08,02,06,00,20.70
2017,08,02,06,01,20.60
2017,08,02,06,02,20.70
2017,08,02,06,03,20.70
2017,08,02,06,04,20.70
2017,08,02,06,05,20.70
2017,08,02,06,06,20.70
2017,08,02,06,07,20.70
2017,08,02,06,08,20.70
2017,08,02,06,09,20.70
2017,08,02,06,10,20.70
2017,08,02,06,11,20.70
2017,08,02,06,12,20.70
2017,08,02,06,13,20.70
2017,08,02,06,14,20.60
2017,08,02,06,15,20.60
2017,08,02,06,16,20.60
2017,08,02,06,17,20.70
2017,08,02,06,18,20.70
2017,08,02,06,19,20.70
2017,08,02,06,20,20.70
2017,08,02,06,21,20.70
2017,08,02,06,22,20.70
2017,08,02,06,23,20.60
2017,08,02,06,24,20.70
2017,08,02,06,25,20.70
2017,08,02,06,26,20.70
2017,08,02,06,27,20.70
2017,08,02,06,28,20.60
2017,08,02,06,29,20.60
2017,08,02,06,30,20.70
2017,08,02,06,31,20.70
2017,08,02,06,32,20.70
2017,08,02,06,33,20.70
2017,08,02,06,34,20.70
2017,08,02,06,35,20.70
2017,08,02,06,36,20.70
2017,08,02,06,37,20.70
2017,08,02,06,38,20.70
2017,08,02,06,39,20.70
2017,08,02,06,40,20.70
2017,08,02,06,41,20.70
2017,08,02,06,42,20.70
2017,08,02,06,43,20.70
2017,08,02,06,44,20.70
2017,08,02,06,45,20.70
2017,08,02,06,46,20.70
2017,08,02,06,47,20.70
2017,08,02,06,48,20.70
2017,08,02,06,49,20.70
2017,08,02,06,50,20.70
2017,08,02,06,51,20.70
2017,08,02,06,52,20.70
2017,08,02,06,53,20.70
2017,08,02,06,54,20.70
2017,08,02,06,55,20.70
2017,08,02,06,56,20.70
2017,08,02,06,57,20.70
2017,08,02,06,58,20.70
2017,08,02,06,59,20.70
2017,08,02,07,00,20.70
2017,08,02,07,01,20.80
2017,08,02,07,02,20.80
2017,08,02,07,03,20.80
2017,08,02,07,04,20.80
2017,08,02,07,05,20.80
2017,08,02,07,06,20.80
2017,08,02,07,07,20.80
2017,08,02,07,08,20.80
2017,08,02,07,09,20.80
2017,08,02,07,10,20.80
2017,08,02,07,11,20.80
2017,08,02,07,12,20.80
2017,08,02,07,13,20.80
2017,08,02,07,14,20.80
2017,08,02,07,15,20.80
2017,08,02,07,16,20.80
2017,08,02,07,17,20.80
2017,08,02,07,18,20.80
2017,08,02,07,19,20.80
2017,08,02,07,20,20.80
2017,08,02,07,21,20.80
2017,08,02,07,22,20.80
2017,08,02,07,23,20.80
2017,08,02,07,24,20.80
2017,08,02,07,25,20.80
2017,08,02,07,26,20.80
2017,08,02,07,27,20.90
2017,08,02,07,28,20.90
2017,08,02,07,29,20.90
2017,08,02,07,30,20.90
2017,08,02,07,31,20.90
2017,08,02,07,32,20.90
2017,08,02,07,33,20.90
2017,08,02,07,34,20.90
2017,08,02,07,35,20.90
2017,08,02,07,36,21.00
2017,08,02,07,37,21.00
2017,08,02,07,38,21.00
2017,08,02,07,39,21.00
2017,08,02,07,40,21.00
2017,08,02,07,41,21.00
2017,08,02,07,42,21.00
2017,08,02,07,43,21.00
2017,08,02,07,44,20.90
2017,08,02,07,45,20.90
2017,08,02,07,46,20.90
2017,08,02,07,47,20.90
2017,08,02,07,48,20.90
2017,08,02,07,49,21.00
2017,08,02,07,50,21.00
2017,08,02,07,51,21.00
2017,08,02,07,52,21.00
2017,08,02,07,53,21.00
2017,08,02,07,54,21.00
2017,08,02,07,55,21.00
2017,08,02,07,56,21.10
2017,08,02,07,57,21.10
2017,08,02,07,58,21.10
2017,08,02,07,59,21.10
2017,08,02,08,00,21.10
2017,08,02,08,01,21.10
2017,08,02,08,02,21.10
2017,08,02,08,03,21.10
2017,08,02,08,04,21.10
2017,08,02,08,05,21.00
2017,08,02,08,06,21.00
2017,08,02,08,07,21.10
2017,08,02,08,08,21.10
2017,08,02,08,09,21.10
2017,08,02,08,10,21.10
2017,08,02,08,11,21.10
2017,08,02,08,12,21.10
2017,08,02,08,13,21.10
2017,08,02,08,14,21.10
2017,08,02,08,15,21.10
2017,08,02,08,16,21.10
2017,08,02,08,17,21.10
2017,08,02,08,18,21.10
2017,08,02,08,19,21.20
2017,08,02,08,20,21.20
2017,08,02,08,21,21.20
2017,08,02,08,22,21.20
2017,08,02,08,23,21.20
2017,08,02,08,24,21.20
2017,08,02,08,25,21.20
2017,08,02,08,26,21.20
2017,08,02,08,27,21.20
2017,08,02,08,28,21.20
2017,08,02,08,29,21.30
2017,08,02,08,30,21.30
2017,08,02,08,31,21.30
2017,08,02,08,32,21.30
2017,08,02,08,33,21.30
2017,08,02,08,34,21.30
2017,08,02,08,35,21.30
2017,08,02,08,36,21.30
2017,08,02,08,37,21.30
2017,08,02,08,38,21.40
2017,08,02,08,39,21.40
2017,08,02,08,40,21.40
2017,08,02,08,41,21.50
2017,08,02,08,42,21.50
2017,08,02,08,43,21.50
2017,08,02,08,44,21.50
2017,08,02,08,45,21.50
2017,08,02,08,46,21.50
2017,08,02,08,47,21.60
2017,08,02,08,48,21.60
2017,08,02,08,49,21.60
2017,08,02,08,50,21.70
2017,08,02,08,51,21.60
2017,08,02,08,52,21.60
2017,08,02,08,53,21.60
2017,08,02,08,54,21.70
2017,08,02,08,55,21.70
2017,08,02,08,56,21.70
2017,08,02,08,57,21.70
2017,08,02,08,58,21.70
2017,08,02,08,59,21.80
2017,08,02,09,00,21.80
2017,08,02,09,01,21.80
2017,08,02,09,02,21.90
2017,08,02,09,03,21.90
2017,08,02,09,04,21.80
2017,08,02,09,05,21.80
2017,08,02,09,06,21.80
2017,08,02,09,07,21.80
2017,08,02,09,08,21.80
2017,08,02,09,09,21.90
2017,08,02,09,10,21.90
2017,08,02,09,11,22.00
2017,08,02,09,12,22.00
2017,08,02,09,13,22.10
2017,08,02,09,14,22.10
2017,08,02,09,15,22.10
2017,08,02,09,16,22.20
2017,08,02,09,17,22.20
2017,08,02,09,18,22.30
2017,08,02,09,19,22.30
2017,08,02,09,20,22.30
2017,08,02,09,21,22.40
2017,08,02,09,22,22.40
2017,08,02,09,23,22.40
2017,08,02,09,24,22.40
2017,08,02,09,25,22.40
2017,08,02,09,26,22.40
2017,08,02,09,27,22.40
2017,08,02,09,28,22.40
2017,08,02,09,29,22.40
2017,08,02,09,30,22.30
2017,08,02,09,31,22.30
2017,08,02,09,32,22.30
2017,08,02,09,33,22.20
2017,08,02,09,34,22.20
2017,08,02,09,35,22.20
2017,08,02,09,36,22.30
2017,08,02,09,37,22.20
2017,08,02,09,38,22.20
2017,08,02,09,39,22.30
2017,08,02,09,40,22.40
2017,08,02,09,41,22.50
2017,08,02,09,42,22.50
2017,08,02,09,43,22.60
2017,08,02,09,44,22.60
2017,08,02,09,45,22.60
2017,08,02,09,46,22.60
2017,08,02,09,47,22.70
2017,08,02,09,48,22.70
2017,08,02,09,49,22.60
2017,08,02,09,50,22.60
2017,08,02,09,51,22.60
2017,08,02,09,52,22.50
2017,08,02,09,53,22.50
2017,08,02,09,54,22.40
2017,08,02,09,55,22.40
2017,08,02,09,56,22.40
2017,08,02,09,57,22.40
2017,08,02,09,58,22.40
2017,08,02,09,59,22.40
2017,08,02,10,00,22.40
2017,08,02,10,01,22.40
2017,08,02,10,02,22.40
2017,08,02,10,03,22.40
2017,08,02,10,04,22.50
2017,08,02,10,05,22.50
2017,08,02,10,06,22.60
2017,08,02,10,07,22.70
2017,08,02,10,08,22.80
2017,08,02,10,09,22.80
2017,08,02,10,10,22.90
2017,08,02,10,11,22.90
2017,08,02,10,12,23.00
2017,08,02,10,13,22.90
2017,08,02,10,14,22.80
2017,08,02,10,15,22.80
2017,08,02,10,16,22.70
2017,08,02,10,17,22.70
2017,08,02,10,18,22.70
2017,08,02,10,19,22.70
2017,08,02,10,20,22.70
2017,08,02,10,21,22.70
2017,08,02,10,22,22.80
2017,08,02,10,23,22.80
2017,08,02,10,24,22.80
2017,08,02,10,25,22.80
2017,08,02,10,26,22.90
2017,08,02,10,27,22.90
2017,08,02,10,28,22.90
2017,08,02,10,29,22.90
2017,08,02,10,30,22.90
2017,08,02,10,31,22.90
2017,08,02,10,32,23.00
2017,08,02,10,33,23.00
2017,08,02,10,34,23.00
2017,08,02,10,35,22.90
2017,08,02,10,36,23.00
2017,08,02,10,37,22.90
2017,08,02,10,38,22.80
2017,08,02,10,39,22.80
2017,08,02,10,40,22.80
2017,08,02,10,41,23.00
2017,08,02,10,42,23.10
2017,08,02,10,43,23.10
2017,08,02,10,44,23.10
2017,08,02,10,45,23.20
2017,08,02,10,46,23.20
2017,08,02,10,47,23.20
2017,08,02,10,48,23.10
2017,08,02,10,49,23.10
2017,08,02,10,50,23.00
2017,08,02,10,51,22.90
2017,08,02,10,52,22.80
2017,08,02,10,53,22.80
2017,08,02,10,54,22.70
2017,08,02,10,55,22.70
2017,08,02,10,56,22.80
2017,08,02,10,57,22.90
2017,08,02,10,58,22.90
2017,08,02,10,59,22.90
2017,08,02,11,00,22.90
2017,08,02,11,01,22.90
2017,08,02,11,02,22.90
2017,08,02,11,03,22.80
2017,08,02,11,04,22.80
2017,08,02,11,05,22.80
2017,08,02,11,06,22.80
2017,08,02,11,07,22.80
2017,08,02,11,08,22.80
2017,08,02,11,09,22.80
2017,08,02,11,10,22.90
2017,08,02,11,11,22.80
2017,08,02,11,12,22.80
2017,08,02,11,13,22.80
2017,08,02,11,14,22.80
2017,08,02,11,15,22.90
2017,08,02,11,16,23.00
2017,08,02,11,17,23.00
2017,08,02,11,18,23.10
2017,08,02,11,19,23.10
2017,08,02,11,20,23.10
2017,08,02,11,21,23.10
2017,08,02,11,22,23.10
2017,08,02,11,23,23.10
2017,08,02,11,24,23.20
2017,08,02,11,25,23.10
2017,08,02,11,26,23.10
2017,08,02,11,27,23.20
2017,08,02,11,28,23.20
2017,08,02,11,29,23.20
2017,08,02,11,30,23.30
2017,08,02,11,31,23.40
2017,08,02,11,32,23.60
2017,08,02,11,33,23.60
2017,08,02,11,34,23.70
2017,08,02,11,35,23.80
2017,08,02,11,36,23.80
2017,08,02,11,37,24.00
2017,08,02,11,38,24.00
2017,08,02,11,39,24.00
2017,08,02,11,40,24.00
2017,08,02,11,41,24.00
2017,08,02,11,42,24.00
2017,08,02,11,43,23.90
2017,08,02,11,44,23.80
2017,08,02,11,45,23.80
2017,08,02,11,46,23.80
2017,08,02,11,47,23.80
2017,08,02,11,48,23.80
2017,08,02,11,49,23.80
2017,08,02,11,50,23.90
2017,08,02,11,51,24.00
2017,08,02,11,52,24.00
2017,08,02,11,53,24.00
2017,08,02,11,54,24.00
2017,08,02,11,55,24.00
2017,08,02,11,56,24.00
2017,08,02,11,57,24.10
2017,08,02,11,58,24.30
2017,08,02,11,59,24.30
2017,08,02,12,00,24.40
2017,08,02,12,01,24.30
2017,08,02,12,02,24.20
2017,08,02,12,03,24.20
2017,08,02,12,04,24.30
2017,08,02,12,05,24.30
2017,08,02,12,06,24.30
2017,08,02,12,07,24.30
2017,08,02,12,08,24.30
2017,08,02,12,09,24.30
2017,08,02,12,10,24.30
2017,08,02,12,11,24.30
2017,08,02,12,12,24.40
2017,08,02,12,13,24.40
2017,08,02,12,14,24.40
2017,08,02,12,15,24.50
2017,08,02,12,16,24.60
2017,08,02,12,17,24.60
2017,08,02,12,18,24.60
2017,08,02,12,19,24.60
2017,08,02,12,20,24.60
2017,08,02,12,21,24.50
2017,08,02,12,22,24.50
2017,08,02,12,23,24.60
2017,08,02,12,24,24.60
2017,08,02,12,25,24.80
2017,08,02,12,26,24.80
2017,08,02,12,27,24.70
2017,08,02,12,28,24.70
2017,08,02,12,29,24.70
2017,08,02,12,30,24.60
2017,08,02,12,31,24.60
2017,08,02,12,32,24.60
2017,08,02,12,33,24.60
2017,08,02,12,34,24.70
2017,08,02,12,35,24.70
2017,08,02,12,36,24.70
2017,08,02,12,37,24.60
2017,08,02,12,38,24.60
2017,08,02,12,39,24.70
2017,08,02,12,40,24.70
2017,08,02,12,41,24.80
2017,08,02,12,42,24.80
2017,08,02,12,43,24.90
2017,08,02,12,44,25.00
2017,08,02,12,45,25.10
2017,08,02,12,46,25.10
2017,08,02,12,47,25.10
2017,08,02,12,48,25.10
2017,08,02,12,49,25.20
2017,08,02,12,50,25.20
2017,08,02,12,51,25.20
2017,08,02,12,52,25.20
2017,08,02,12,53,25.30
2017,08,02,12,54,25.30
2017,08,02,12,55,25.30
2017,08,02,12,56,25.20
2017,08,02,12,57,25.10
2017,08,02,12,58,24.90
2017,08,02,12,59,24.80
2017,08,02,13,00,24.70
2017,08,02,13,01,24.70
2017,08,02,13,02,24.70
2017,08,02,13,03,24.70
2017,08,02,13,04,24.80
2017,08,02,13,05,24.90
2017,08,02,13,06,25.00
2017,08,02,13,07,25.00
2017,08,02,13,08,25.00
2017,08,02,13,09,25.00
2017,08,02,13,10,25.10
2017,08,02,13,11,25.30
2017,08,02,13,12,25.50
2017,08,02,13,13,25.50
2017,08,02,13,14,25.50
2017,08,02,13,15,25.50
2017,08,02,13,16,25.50
2017,08,02,13,17,25.40
2017,08,02,13,18,25.40
2017,08,02,13,19,25.40
2017,08,02,13,20,25.40
2017,08,02,13,21,25.50
2017,08,02,13,22,25.60
2017,08,02,13,23,25.60
2017,08,02,13,24,25.70
2017,08,02,13,25,25.60
2017,08,02,13,26,25.50
2017,08,02,13,27,25.50
2017,08,02,13,28,25.40
2017,08,02,13,29,25.50
2017,08,02,13,30,25.60
2017,08,02,13,31,25.60
2017,08,02,13,32,25.60
2017,08,02,13,33,25.60
2017,08,02,13,34,25.60
2017,08,02,13,35,25.50
2017,08,02,13,36,25.40
2017,08,02,13,37,25.40
2017,08,02,13,38,25.40
2017,08,02,13,39,25.40
2017,08,02,13,40,25.60
2017,08,02,13,41,25.70
2017,08,02,13,42,25.70
2017,08,02,13,43,25.80
2017,08,02,13,44,25.80
2017,08,02,13,45,25.70
2017,08,02,13,46,25.50
2017,08,02,13,47,25.50
2017,08,02,13,48,25.40
2017,08,02,13,49,25.50
2017,08,02,13,50,25.50
2017,08,02,13,51,25.60
2017,08,02,13,52,25.70
2017,08,02,13,53,25.70
2017,08,02,13,54,25.80
2017,08,02,13,55,25.80
2017,08,02,13,56,25.80
2017,08,02,13,57,25.80
2017,08,02,13,58,25.80
2017,08,02,13,59,25.80
2017,08,02,14,00,25.70
2017,08,02,14,01,25.70
2017,08,02,14,02,25.70
2017,08,02,14,03,25.70
2017,08,02,14,04,25.70
2017,08,02,14,05,25.70
2017,08,02,14,06,25.80
2017,08,02,14,07,25.80
2017,08,02,14,08,25.80
2017,08,02,14,09,25.80
2017,08,02,14,10,25.80
2017,08,02,14,11,25.80
2017,08,02,14,12,25.90
2017,08,02,14,13,26.00
2017,08,02,14,14,26.10
2017,08,02,14,15,26.20
2017,08,02,14,16,26.20
2017,08,02,14,17,26.20
2017,08,02,14,18,26.30
2017,08,02,14,19,26.40
2017,08,02,14,20,26.30
2017,08,02,14,21,26.30
2017,08,02,14,22,26.40
2017,08,02,14,23,26.60
2017,08,02,14,24,26.60
2017,08,02,14,25,26.70
2017,08,02,14,26,26.70
2017,08,02,14,27,26.70
2017,08,02,14,28,26.60
2017,08,02,14,29,26.60
2017,08,02,14,30,26.60
2017,08,02,14,31,26.60
2017,08,02,14,32,26.60
2017,08,02,14,33,26.60
2017,08,02,14,34,26.60
2017,08,02,14,35,26.50
2017,08,02,14,36,26.60
2017,08,02,14,37,26.60
2017,08,02,14,38,26.70
2017,08,02,14,39,26.70
2017,08,02,14,40,26.80
2017,08,02,14,41,26.90
2017,08,02,14,42,27.00
2017,08,02,14,43,27.10
2017,08,02,14,44,27.20
2017,08,02,14,45,27.20
2017,08,02,14,46,27.20
2017,08,02,14,47,27.30
2017,08,02,14,48,27.40
2017,08,02,14,49,27.40
2017,08,02,14,50,27.30
2017,08,02,14,51,27.30
2017,08,02,14,52,27.10
2017,08,02,14,53,26.90
2017,08,02,14,54,26.80
2017,08,02,14,55,26.80
2017,08,02,14,56,26.90
2017,08,02,14,57,27.00
2017,08,02,14,58,27.00
2017,08,02,14,59,26.80
2017,08,02,15,00,26.80
2017,08,02,15,01,26.90
2017,08,02,15,02,27.00
2017,08,02,15,03,27.10
2017,08,02,15,04,27.20
2017,08,02,15,05,27.30
2017,08,02,15,06,27.40
2017,08,02,15,07,27.50
2017,08,02,15,08,27.60
2017,08,02,15,09,27.60
2017,08,02,15,10,27.70
2017,08,02,15,11,27.70
2017,08,02,15,12,27.70
2017,08,02,15,13,27.70
2017,08,02,15,14,27.80
2017,08,02,15,15,27.80
2017,08,02,15,16,27.80
2017,08,02,15,17,27.80
2017,08,02,15,18,27.90
2017,08,02,15,19,28.00
2017,08,02,15,20,28.00
2017,08,02,15,21,28.00
2017,08,02,15,22,28.10
2017,08,02,15,23,28.20
2017,08,02,15,24,28.20
2017,08,02,15,25,28.20
2017,08,02,15,26,28.20
2017,08,02,15,27,28.20
2017,08,02,15,28,28.20
2017,08,02,15,29,28.20
2017,08,02,15,30,28.10
2017,08,02,15,31,28.10
2017,08,02,15,32,28.10
2017,08,02,15,33,28.20
2017,08,02,15,34,28.30
2017,08,02,15,35,28.40
2017,08,02,15,36,28.60
2017,08,02,15,37,28.60
2017,08,02,15,38,28.70
2017,08,02,15,39,28.80
2017,08,02,15,40,28.80
2017,08,02,15,41,28.80
2017,08,02,15,42,28.80
2017,08,02,15,43,28.70
2017,08,02,15,44,28.70
2017,08,02,15,45,28.80
2017,08,02,15,46,28.80
2017,08,02,15,47,28.80
2017,08,02,15,48,28.80
2017,08,02,15,49,28.90
2017,08,02,15,50,28.90
2017,08,02,15,51,28.90
2017,08,02,15,52,28.90
2017,08,02,15,53,28.90
2017,08,02,15,54,28.90
2017,08,02,15,55,28.80
2017,08,02,15,56,28.80
2017,08,02,15,57,28.80
2017,08,02,15,58,28.80
2017,08,02,15,59,28.80
2017,08,02,16,00,28.80
2017,08,02,16,01,28.80
2017,08,02,16,02,28.90
2017,08,02,16,03,29.00
2017,08,02,16,04,29.00
2017,08,02,16,05,29.00
2017,08,02,16,06,29.10
2017,08,02,16,07,29.00
2017,08,02,16,08,29.00
2017,08,02,16,09,29.00
2017,08,02,16,10,28.90
2017,08,02,16,11,29.00
2017,08,02,16,12,29.00
2017,08,02,16,13,29.10
2017,08,02,16,14,29.10
2017,08,02,16,15,29.10
2017,08,02,16,16,29.20
2017,08,02,16,17,29.20
2017,08,02,16,18,29.20
2017,08,02,16,19,29.20
2017,08,02,16,20,29.20
2017,08,02,16,21,29.20
2017,08,02,16,22,29.20
2017,08,02,16,23,29.20
2017,08,02,16,24,29.20
2017,08,02,16,25,29.20
2017,08,02,16,26,29.20
2017,08,02,16,27,29.30
2017,08,02,16,28,29.30
2017,08,02,16,29,29.30
2017,08,02,16,30,29.30
2017,08,02,16,31,29.30
2017,08,02,16,32,29.20
2017,08,02,16,33,29.20
2017,08,02,16,34,29.20
2017,08,02,16,35,29.30
2017,08,02,16,36,29.30
2017,08,02,16,37,29.40
2017,08,02,16,38,29.40
2017,08,02,16,39,29.40
2017,08,02,16,40,29.40
2017,08,02,16,41,29.50
2017,08,02,16,42,29.50
2017,08,02,16,43,29.60
2017,08,02,16,44,29.60
2017,08,02,16,45,29.60
2017,08,02,16,46,29.60
2017,08,02,16,47,29.60
2017,08,02,16,48,29.50
2017,08,02,16,49,29.50
2017,08,02,16,50,29.40
2017,08,02,16,51,29.40
2017,08,02,16,52,29.40
2017,08,02,16,53,29.40
2017,08,02,16,54,29.40
2017,08,02,16,55,29.30
2017,08,02,16,56,29.30
2017,08,02,16,57,29.20
2017,08,02,16,58,29.20
2017,08,02,16,59,29.20
2017,08,02,17,00,29.20
2017,08,02,17,01,29.20
2017,08,02,17,02,29.20
2017,08,02,17,03,29.20
2017,08,02,17,04,29.30
2017,08,02,17,05,29.30
2017,08,02,17,06,29.30
2017,08,02,17,07,29.30
2017,08,02,17,08,29.30
2017,08,02,17,09,29.30
2017,08,02,17,10,29.30
2017,08,02,17,11,29.30
2017,08,02,17,12,29.30
2017,08,02,17,13,29.30
2017,08,02,17,14,29.30
2017,08,02,17,15,29.40
2017,08,02,17,16,29.50
2017,08,02,17,17,29.60
2017,08,02,17,18,29.60
2017,08,02,17,19,29.60